TimeCST,TemperatureF,Dew PointF,Humidity,Sea Level PressureIn,VisibilityMPH,Wind Direction,Wind SpeedMPH,Gust SpeedMPH,PrecipitationIn,Events,Conditions,WindDirDegrees,DateUTC
12:13 AM,5.0,-2.2,72,30.35,10.0,NNW,10.4,18.4,N/A,,Clear,340,2013-02-20 06:13:00
12:33 AM,6.8,-2.2,67,30.35,10.0,NNW,10.4,18.4,N/A,,Clear,340,2013-02-20 06:33:00
12:53 AM,5.0,-2.2,72,30.36,10.0,NNW,11.5,-,N/A,,Clear,340,2013-02-20 06:53:00
1:13 AM,5.0,-2.2,72,30.37,10.0,North,12.7,-,N/A,,Clear,10,2013-02-20 07:13:00
1:33 AM,3.2,-4.0,72,30.37,10.0,North,10.4,-,N/A,,Clear,360,2013-02-20 07:33:00
1:53 AM,3.2,-5.8,66,30.39,10.0,NNW,6.9,-,N/A,,Scattered Clouds,330,2013-02-20 07:53:00
2:14 AM,1.4,-7.6,66,30.39,10.0,NNW,10.4,-,N/A,,Scattered Clouds,330,2013-02-20 08:14:00
2:33 AM,3.2,-5.8,66,30.40,10.0,North,6.9,-,N/A,,Scattered Clouds,350,2013-02-20 08:33:00
3:13 AM,1.4,-5.8,72,30.41,10.0,North,10.4,-,N/A,,Clear,350,2013-02-20 09:13:00
3:33 AM,3.2,-5.8,66,30.42,10.0,NNW,10.4,18.4,N/A,,Clear,340,2013-02-20 09:33:00
3:54 AM,1.4,-7.6,66,30.43,10.0,NW,6.9,-,N/A,,Clear,320,2013-02-20 09:54:00
4:13 AM,1.4,-5.8,72,30.43,10.0,NNW,8.1,-,N/A,,Clear,340,2013-02-20 10:13:00
4:33 AM,1.4,-5.8,72,30.43,10.0,North,16.1,-,N/A,,Clear,360,2013-02-20 10:33:00
4:54 AM,1.4,-5.8,72,30.44,10.0,North,13.8,17.3,N/A,,Clear,350,2013-02-20 10:54:00
5:13 AM,1.4,-5.8,72,30.44,10.0,North,15.0,-,N/A,,Clear,360,2013-02-20 11:13:00
5:33 AM,1.4,-5.8,72,30.45,10.0,North,13.8,-,N/A,,Clear,360,2013-02-20 11:33:00
5:54 AM,1.4,-5.8,72,30.46,10.0,North,11.5,-,N/A,,Clear,350,2013-02-20 11:54:00
6:13 AM,1.4,-5.8,72,30.46,10.0,North,10.4,-,N/A,,Clear,10,2013-02-20 12:13:00
6:33 AM,1.4,-5.8,72,30.46,10.0,North,11.5,-,N/A,,Clear,360,2013-02-20 12:33:00
6:54 AM,3.2,-4.0,72,30.46,10.0,North,12.7,17.3,N/A,,Clear,350,2013-02-20 12:54:00
7:13 AM,1.4,-5.8,72,30.46,10.0,North,10.4,-,N/A,,Clear,360,2013-02-20 13:13:00
7:33 AM,3.2,-5.8,66,30.47,10.0,NNE,11.5,-,N/A,,Clear,20,2013-02-20 13:33:00
7:54 AM,3.2,-5.8,66,30.47,10.0,NNE,13.8,-,N/A,,Clear,20,2013-02-20 13:54:00
8:13 AM,3.2,-4.0,72,30.48,10.0,NNE,11.5,-,N/A,,Clear,20,2013-02-20 14:13:00
8:34 AM,3.2,-4.0,72,30.48,10.0,North,9.2,-,N/A,,Clear,10,2013-02-20 14:34:00
8:53 AM,3.2,-4.0,72,30.49,10.0,NNE,9.2,-,N/A,,Clear,20,2013-02-20 14:53:00
9:13 AM,3.2,-4.0,72,30.49,10.0,NNE,6.9,-,N/A,,Clear,20,2013-02-20 15:13:00
9:34 AM,5.0,-2.2,72,30.48,10.0,NE,6.9,-,N/A,,Clear,50,2013-02-20 15:34:00
9:53 AM,6.8,-2.2,67,30.48,10.0,ENE,5.8,-,N/A,,Clear,60,2013-02-20 15:53:00
10:13 AM,6.8,-2.2,67,30.48,10.0,NNE,3.5,-,N/A,,Clear,30,2013-02-20 16:13:00
10:34 AM,8.6,-0.4,67,30.48,10.0,NNE,4.6,-,N/A,,Clear,20,2013-02-20 16:34:00
10:53 AM,8.6,-0.4,67,30.48,10.0,ENE,4.6,-,N/A,,Scattered Clouds,70,2013-02-20 16:53:00
11:14 AM,8.6,1.4,73,30.47,10.0,East,3.5,-,N/A,,Clear,80,2013-02-20 17:14:00
11:34 AM,10.4,1.4,67,30.47,10.0,ENE,4.6,-,N/A,,Clear,70,2013-02-20 17:34:00
11:53 AM,8.6,1.4,73,30.48,10.0,SSE,3.5,-,N/A,,Clear,160,2013-02-20 17:53:00
12:14 PM,10.4,1.4,67,30.48,10.0,South,3.5,-,N/A,,Clear,180,2013-02-20 18:14:00
12:33 PM,10.4,1.4,67,30.47,10.0,South,4.6,-,N/A,,Clear,190,2013-02-20 18:33:00
1:14 PM,12.2,3.2,67,30.47,10.0,Calm,Calm,-,N/A,,Clear,0,2013-02-20 19:14:00
1:33 PM,12.2,5.0,73,30.46,10.0,Calm,Calm,-,N/A,,Clear,0,2013-02-20 19:33:00
1:53 PM,12.2,5.0,73,30.47,10.0,Calm,Calm,-,N/A,,Clear,0,2013-02-20 19:53:00
2:14 PM,12.2,5.0,73,30.46,10.0,Calm,Calm,-,N/A,,Clear,0,2013-02-20 20:14:00
2:54 PM,12.2,5.0,73,30.47,10.0,Calm,Calm,-,N/A,,Clear,0,2013-02-20 20:54:00
3:13 PM,12.2,3.2,67,30.48,10.0,Calm,Calm,-,N/A,,Clear,0,2013-02-20 21:13:00
3:33 PM,15.8,3.2,58,30.48,10.0,Calm,Calm,-,N/A,,Clear,0,2013-02-20 21:33:00
4:13 PM,15.8,5.0,62,30.48,10.0,Calm,Calm,-,N/A,,Clear,0,2013-02-20 22:13:00
4:33 PM,12.2,3.2,67,30.48,10.0,Calm,Calm,-,N/A,,Clear,0,2013-02-20 22:33:00
4:54 PM,14.0,3.2,62,30.48,10.0,Calm,Calm,-,N/A,,Clear,0,2013-02-20 22:54:00
5:13 PM,15.8,5.0,62,30.48,10.0,Calm,Calm,-,N/A,,Clear,0,2013-02-20 23:13:00
5:33 PM,12.2,3.2,67,30.48,10.0,Calm,Calm,-,N/A,,Clear,0,2013-02-20 23:33:00
5:53 PM,12.2,3.2,67,30.48,10.0,Calm,Calm,-,N/A,,Clear,0,2013-02-20 23:53:00
6:14 PM,12.2,3.2,67,30.48,10.0,Calm,Calm,-,N/A,,Clear,0,2013-02-21 00:14:00
6:33 PM,10.4,3.2,73,30.48,10.0,Calm,Calm,-,N/A,,Clear,0,2013-02-21 00:33:00
6:53 PM,12.2,3.2,67,30.48,10.0,Calm,Calm,-,N/A,,Clear,0,2013-02-21 00:53:00
7:14 PM,10.4,3.2,73,30.47,10.0,Calm,Calm,-,N/A,,Clear,0,2013-02-21 01:14:00
7:33 PM,10.4,1.4,67,30.47,10.0,Calm,Calm,-,N/A,,Clear,0,2013-02-21 01:33:00
7:54 PM,6.8,1.4,79,30.47,10.0,Calm,Calm,-,N/A,,Clear,0,2013-02-21 01:54:00
8:13 PM,5.0,-0.4,78,30.46,10.0,Calm,Calm,-,N/A,,Clear,0,2013-02-21 02:13:00
8:34 PM,6.8,1.4,79,30.46,10.0,ESE,3.5,-,N/A,,Clear,110,2013-02-21 02:34:00
8:54 PM,3.2,-2.2,78,30.45,10.0,Calm,Calm,-,N/A,,Clear,0,2013-02-21 02:54:00
9:13 PM,6.8,1.4,79,30.45,10.0,Calm,Calm,-,N/A,,Clear,0,2013-02-21 03:13:00
9:34 PM,10.4,3.2,73,30.44,10.0,Calm,Calm,-,N/A,,Clear,0,2013-02-21 03:34:00
9:54 PM,14.0,8.6,79,30.44,10.0,East,5.8,-,N/A,,Clear,90,2013-02-21 03:54:00
10:13 PM,8.6,1.4,73,30.44,10.0,ESE,3.5,-,N/A,,Clear,110,2013-02-21 04:13:00
10:34 PM,6.8,1.4,79,30.44,10.0,Calm,Calm,-,N/A,,Clear,0,2013-02-21 04:34:00
10:54 PM,6.8,1.4,79,30.44,10.0,ESE,4.6,-,N/A,,Clear,120,2013-02-21 04:54:00
11:13 PM,6.8,1.4,79,30.44,10.0,Calm,Calm,-,N/A,,Clear,0,2013-02-21 05:13:00
11:34 PM,6.8,-0.4,72,30.44,10.0,Calm,Calm,-,N/A,,Clear,0,2013-02-21 05:34:00
11:53 PM,6.8,1.4,79,30.44,10.0,ESE,3.5,-,N/A,,Clear,120,2013-02-21 05:53:00